CST,Max TemperatureF,Mean TemperatureF,Min TemperatureF,Max Dew PointF,MeanDew PointF,Min DewpointF,Max Humidity, Mean Humidity, Min Humidity, Max Sea Level PressureIn, Mean Sea Level PressureIn, Min Sea Level PressureIn, Max VisibilityMiles, Mean VisibilityMiles, Min VisibilityMiles, Max Wind SpeedMPH, Mean Wind SpeedMPH, Max Gust SpeedMPH,PrecipitationIn, CloudCover, Events, WindDirDegrees
2012-12-1,73,58,44,60,50,45,100,93,59,30.28,30.24,30.21,10,3,0,12,1,17,0.00,4,Fog,82
2012-12-2,75,60,46,60,51,46,100,91,46,30.31,30.25,30.22,10,3,0,9,1,,0.00,4,Fog,157
2012-12-3,75,62,48,64,57,48,100,89,65,30.26,30.22,30.19,10,4,0,16,3,21,0.00,3,Fog,137
2012-12-4,75,65,55,68,59,54,100,91,69,30.26,30.20,30.16,10,5,0,13,2,18,0.01,3,Fog,147
2012-12-5,72,66,60,64,61,59,100,91,68,30.17,30.12,30.05,10,6,0,8,1,,0.00,6,Fog-Rain,89
2012-12-6,75,63,51,61,56,51,100,91,55,30.05,30.00,29.97,10,4,0,13,2,,0.00,1,Fog,120
2012-12-7,75,63,51,65,61,51,100,89,69,30.00,29.95,29.91,10,6,0,12,3,,0.00,6,Fog,95
2012-12-8,73,65,54,66,63,53,100,91,66,30.02,29.97,29.92,10,5,0,7,2,,0.03,6,Fog-Rain,171
2012-12-9,75,62,50,68,61,50,100,88,68,30.06,30.00,29.94,10,7,0,14,3,17,0.00,7,Fog,162
2012-12-10,75,62,48,69,62,43,100,89,76,29.96,29.86,29.79,10,9,2,16,9,29,0.11,6,Rain-Thunderstorm,236
2012-12-11,48,45,42,43,37,35,87,75,66,30.19,30.06,29.96,10,10,10,13,10,21,0.00,3,,360
2012-12-12,60,46,33,35,30,18,83,61,20,30.30,30.21,30.15,10,10,10,12,6,17,0.00,1,,357
2012-12-13,64,46,28,40,35,26,100,78,38,30.36,30.29,30.25,10,7,0,10,4,,0.00,0,Fog,14
2012-12-14,63,48,34,47,42,33,97,84,48,30.32,30.24,30.15,10,6,1,10,3,,0.00,2,,81
2012-12-15,71,60,50,63,56,47,92,83,66,30.14,30.07,30.01,10,10,8,9,3,,0.00,5,,137
2012-12-16,72,67,62,70,64,58,94,90,83,30.00,29.93,29.85,10,8,4,14,5,23,0.02,6,Rain,162
2012-12-17,68,60,51,66,61,52,100,93,86,29.89,29.82,29.77,10,7,1,8,4,,0.57,6,Rain-Thunderstorm,262
2012-12-18,66,52,37,52,42,36,100,86,42,30.05,30.00,29.90,10,4,0,6,1,,0.00,0,Fog,245
2012-12-19,73,55,37,65,46,36,100,87,53,30.08,30.01,29.92,10,6,0,15,2,16,0.00,4,,141
2012-12-20,72,59,43,70,52,26,94,70,28,30.25,29.95,29.85,10,9,2,21,12,34,0.11,5,Rain,250
2012-12-21,57,44,28,27,22,12,85,50,19,30.38,30.32,30.25,10,10,10,14,5,22,0.00,0,,306
2012-12-22,62,44,25,34,28,23,96,70,22,30.44,30.35,30.27,10,10,10,8,1,,0.00,0,,23
2012-12-23,64,48,33,59,46,31,93,81,60,30.25,30.15,30.02,10,10,7,12,2,,0.00,4,,142
2012-12-24,73,68,62,63,62,59,100,86,69,30.00,29.92,29.88,10,7,0,16,7,25,0.00,6,Fog-Rain,207
2012-12-25,72,64,55,65,62,49,100,90,72,29.89,29.76,29.58,10,6,0,21,5,33,0.36,6,Fog-Rain-Thunderstorm,175
2012-12-26,53,46,37,47,34,30,80,66,49,30.17,29.98,29.73,10,10,10,15,11,29,0.00,4,,312
2012-12-27,52,44,35,38,32,29,96,76,50,30.22,30.14,30.08,10,9,3,9,4,,0.00,4,,11
2012-12-28,66,52,37,65,55,35,94,86,72,30.08,29.88,29.74,10,9,2,16,7,26,0.41,7,Rain,141
2012-12-29,55,46,34,52,36,27,88,70,48,30.40,30.14,29.88,10,10,10,16,10,26,0.00,5,,324
2012-12-30,53,40,27,30,26,23,92,69,32,30.53,30.43,30.37,10,10,10,10,4,,0.00,0,,14
2012-12-31,63,46,30,54,41,28,92,76,58,30.35,30.26,30.10,10,10,9,8,3,,0.00,5,,53